Regional Weather Roundup
Issued by NWS Jackson, KY

Current Version | Previous Version | Text Only | Print | Product List | Glossary On
Versions: 1 2 3 4 5 6 7 8 9 10 11 12 13 14 15 16 17 18 19 20 21 22 23 24 25 26 27 28 29 30 31 32 33 34 35 36 37 38 39 40 41 42 43 44 45 46 47 48 49 50
000
ASUS43 KJKL 261010
RWRJKL

EAST KENTUCKY HOURLY WEATHER ROUNDUP
NATIONAL WEATHER SERVICE JACKSON KY
600 AM EDT TUE JUL 26 2016

NOTE: "FAIR" INDICATES FEW OR NO CLOUDS BELOW 12,000 FEET WITH
NO SIGNIFICANT WEATHER AND/OR OBSTRUCTIONS TO VISIBILITY.

* THESE REPORTS ARE NOT UNDER NWS QUALITY CONTROL AND MAY NOT
  REPORT WEATHER SUCH AS PRECIPITATION AND FOG.

KYZ079-080-083-085-087-088-110-112-115-119-120-261100
...EASTERN KENTUCKY...

CITY           SKY/WX    TMP DP  RH WIND       PRES   REMARKS
JACKSON        FOG       72  71  97 CALM      30.07R VSB 1/4
LONDON         MOCLDY    70  67  90 CALM      30.07R
SOMERSET*      CLOUDY    70  70 100 CALM      30.06S FOG
MONTICELLO*    PTCLDY   N/A N/A N/A W6        30.07R
WILLIAMSBURG*  CLOUDY    70  70 100 CALM      30.07R VSB<1/4
MIDDLESBORO*   CLEAR     69  68  98 CALM      30.09R
HARLAN APT*    CLOUDY    70  68  94 CALM      30.10R
PIKE CO APT*   FOG       71  71 100 CALM      30.08R VSB<1/4
BIG SANDY APT* FOG       73  73 100 CALM      30.06R VSB<1/4
MOREHEAD APT*  FOG       73  72  94 CALM      30.05S VSB 1/2
ASHLAND*       PTCLDY    73  72  94 CALM      30.00R
$$

KYZ035-036-041-042-044-050-067-078-099-261100
...CENTRAL KENTUCKY...

CITY           SKY/WX    TMP DP  RH WIND       PRES   REMARKS
MT STERLING*   PTCLDY    72  72 100 CALM      30.06R FOG
FLEMING/MASON* CLOUDY    73  72  98 CALM      30.05R FOG
DANVILLE*      MOCLDY    70  70 100 CALM      30.06R FOG
RICHMOND*      CLEAR     72  70  94 CALM      30.05R
LEXINGTON      FOG       72  71  97 SW3       30.05R VSB 1/4
FRANKFORT      PTCLDY    73  71  93 CALM      30.03R
LOUISVILLE     CLOUDY    76  73  91 S6        30.02R
LEBANON*         N/A     72  72 100 CALM      30.05R FOG
GLASGOW*       CLEAR     72  72 100 CALM      30.03R
BOWLING GREEN  CLOUDY    74  72  93 CALM      30.02R
$$

KYZ091>093-OHZ055-061-077-WVZ005-015-034-035-042-261100
...SOUTHERN OHIO/WEST VIRGINIA...

CITY           SKY/WX    TMP DP  RH WIND       PRES   REMARKS
COVINGTON      CLOUDY    78  74  87 N6        30.03R
COLUMBUS       CLOUDY    75  68  78 N8        30.01R
DAYTON         CLOUDY    72  65  78 N5        30.05R
WILMINGTON     CLOUDY    74  70  87 CALM      30.03R
HUNTINGTON     MOCLDY    73  72  96 SW3       30.02R
CHARLESTON       N/A     73  71  93 CALM      30.03R
PINEVILLE*       N/A     68  65  90 MISG      30.14R
BECKLEY          N/A     68  66  93 S3        30.12R
BLUEFIELD        N/A     68  65  90 CALM      30.15R
LOGAN CO APT*  FOG       70  70 100 CALM      30.07R VSB<1/4
$$

VAZ002-007-008-TNZ017-027-036-066-071-261100
...SOUTHWEST VIRGINIA/EAST TENNESSEE...

CITY           SKY/WX    TMP DP  RH WIND       PRES   REMARKS
WISE*            N/A     68  66  94 SW3       30.15R FOG
JONESVILLE*    FOG       68  68 100 CALM      30.11R VSB 1/2
ABINGDON*        N/A     70  69  96 CALM      30.11S
BRISTOL        MOCLDY    71  69  93 CALM      30.08R
MORRISTOWN*    SUNNY     73  72  94 SW6       30.07R
SEVIERVILLE*   MOSUNNY   72  70  94 CALM      30.06R
KNOXVILLE      PTCLDY    76  70  82 SW5       30.05S
OAK RIDGE      PTCLDY    77  72  84 CALM      30.06S
CROSSVILLE     CLEAR     72  69  90 CALM      30.11R
NASHVILLE      CLEAR     75  71  87 CALM      30.03R
$$

...KEY TO REMARKS...
VSB - VISIBILITY IN MILES
WCI - WIND CHILL INDEX
HX  - HEAT INDEX

$$



USA.gov is the U.S. government's official web portal to all federal, state and local government web resources and services.